User: anonymous   Login
Location: Unspecified
(0.0000°N, 0.0000°E)
Time: 19:21:40
(UTC+00:00)
Language:

PROBA 2 - Orbit

View from above orbital plane
View from above orbital plane
View from above satellite
View from above satellite

Ground track
Ground track

The orbit data is extracted from the following two-line orbital elements,

1 36037U 09059B   17178.47707948 -.00000021 +00000-0 +56735-5 0  9997
2 36037 098.2523 011.7676 0012323 308.5395 051.4696 14.53002143405533
Epoch (UTC): 27 June 2017 11:26:59
Eccentricity: 0.0012323
inclination: 98.2523°
perigee height: 707 km
apogee height: 724 km
right ascension of ascending node: 11.7676°
argument of perigee: 308.5395°
revolutions per day: 14.53002143
mean anomaly at epoch: 51.4696°
orbit number at epoch: 40553

The dashed part of the orbit path shows where the satellite is in the earth's shadow,  

DLR